DW1774 Weather Reports


time (UTC)temp
F
wind
direction
speed
knots
gust
knots
rain 1hr
in
rain 24hr
in
rain mn
in
humidity
%
barometer
mb
20260905110904 77 0 0.0 0.0 0.00 3.31 0.00 93 1012.1
20260905110405 77 0 0.0 0.0 0.00 3.31 0.00 93 1012.0
20260905105903 78 0 0.0 0.0 0.00 3.31 0.00 93 1012.0
20260905105404 77 0 0.0 0.0 0.00 3.31 0.00 93 1012.0
20260905104905 78 0 0.0 0.0 0.00 3.31 0.00 93 1012.0
20260905104404 78 0 0.0 0.0 0.00 3.31 0.00 93 1012.0
20260905103904 78 0 0.0 0.0 0.00 3.31 0.00 93 1012.0
20260905103405 78 0 0.0 0.0 0.00 3.31 0.00 93 1011.9
20260905102904 78 0 0.0 0.0 0.00 3.31 0.00 93 1011.9
20260905102403 78 0 0.0 0.0 0.00 3.31 0.00 93 1011.9
20260905101904 78 0 0.0 0.0 0.00 3.31 0.00 92 1011.9
20260905101404 78 0 0.0 0.0 0.00 3.31 0.00 92 1011.9
20260905100904 78 0 0.0 0.0 0.00 3.31 0.00 92 1012.0
20260905100403 78 0 0.0 0.0 0.00 3.31 0.00 92 1012.1
20260905095904 78 0 0.0 0.0 0.00 3.31 0.00 92 1012.0
20260905094904 78 0 0.0 0.0 0.00 3.31 0.00 92 1012.0
20260905094405 78 0 0.0 0.0 0.00 3.31 0.00 92 1012.0
20260905093904 78 0 0.0 0.0 0.00 3.31 0.00 92 1012.0
20260905093404 78 0 0.0 0.0 0.00 3.31 0.00 92 1011.9
20260905092405 78 0 0.0 0.0 0.00 3.31 0.00 92 1011.9
20260905091904 78 0 0.0 0.0 0.00 3.31 0.00 92 1011.9
20260905091404 78 0 0.0 0.0 0.00 3.31 0.00 92 1011.9
20260905090404 78 0 0.0 0.0 0.00 3.31 0.00 92 1011.8
20260905085904 78 0 0.0 0.0 0.00 3.31 0.00 92 1011.9
20260905085404 78 0 0.0 0.0 0.00 3.31 0.00 92 1011.8
20260905084405 79 0 0.0 0.0 0.00 3.31 0.00 92 1011.8
20260905083904 79 0 0.0 0.0 0.00 3.31 0.00 92 1011.8
20260905083403 79 0 0.0 0.0 0.00 3.31 0.00 91 1011.7
20260905082904 79 0 0.0 0.0 0.00 3.31 0.00 91 1011.6
20260905082405 79 0 0.0 0.0 0.00 3.31 0.00 91 1011.6
20260905081905 79 0 0.0 0.0 0.00 3.31 0.00 91 1011.7
20260905081404 79 0 0.0 0.0 0.00 3.31 0.00 91 1011.7
20260905080404 79 0 0.0 0.0 0.00 3.31 0.00 91 1011.7
20260905075404 79 0 0.0 0.0 0.00 3.31 0.00 91 1011.8
20260905074905 79 0 0.0 0.0 0.00 3.31 0.00 91 1011.8
20260905074404 79 0 0.0 0.0 0.00 3.31 0.00 91 1011.8
20260905073904 79 0 0.0 0.0 0.00 3.31 0.00 91 1011.8
20260905073404 79 0 0.0 0.0 0.00 3.31 0.00 91 1011.8
20260905072404 79 0 0.0 0.0 0.00 3.31 0.00 91 1012.0
20260905071904 80 0 0.0 0.0 0.00 3.31 0.00 90 1012.1
20260905070904 80 0 0.0 0.0 0.00 3.31 0.00 90 1012.0
20260905070404 80 0 0.0 0.0 0.00 3.31 0.00 90 1012.1
20260905065904 80 0 0.0 0.0 0.00 3.31 0.00 90 1012.2
20260905065403 80 0 0.0 0.0 0.00 3.31 0.00 90 1012.3
20260905064904 80 0 0.0 0.0 0.00 3.31 0.00 90 1012.4
20260905064404 80 0 0.0 0.0 0.00 3.31 0.00 90 1012.3
20260905063904 80 0 0.0 0.0 0.00 3.31 0.00 90 1012.4
20260905063405 80 0 0.0 0.0 0.00 3.31 0.00 90 1012.4
20260905062904 80 0 0.0 0.0 0.00 3.31 0.00 90 1012.4
20260905062404 80 0 0.0 0.0 0.00 3.31 0.00 90 1012.4
20260905061405 80 0 0.0 0.0 0.00 3.31 0.00 90 1012.4
20260905060404 80 0 0.0 0.0 0.00 3.31 0.00 89 1012.4
20260905055903 81 0 0.0 0.0 0.60 3.31 0.00 89 1012.4
20260905055403 81 0 0.0 0.0 3.75 3.31 0.00 89 1012.5
20260905054904 81 0 0.0 0.0 7.05 3.31 0.00 89 1012.6
20260905054404 81 0 0.0 0.0 9.60 3.31 0.00 89 1012.6
20260905053904 81 0 0.0 0.0 9.99 3.31 0.00 89 1012.6
20260905053404 81 0 0.0 0.0 9.99 3.31 0.00 89 1012.5
20260905052904 81 0 0.0 0.0 9.99 3.31 0.00 89 1012.6
20260905052403 81 0 0.0 0.0 9.99 3.31 0.00 88 1012.6
20260905051904 81 0 0.0 0.0 9.99 3.31 0.00 88 1012.5
20260905051404 81 0 0.0 0.0 9.99 3.31 0.00 88 1012.5
20260905050903 81 0 0.0 0.0 9.99 3.31 0.00 88 1012.5
20260905050404 81 0 0.0 0.0 9.99 3.31 0.00 88 1012.5
20260905045904 81 0 0.0 0.0 9.99 3.31 3.33 88 1012.5
20260905044905 82 0 0.0 0.0 9.99 3.25 3.26 88 1012.6
20260905044404 82 0 0.0 0.0 9.99 3.22 3.24 88 1012.6
20260905043404 82 0 0.0 0.0 9.99 3.18 3.19 87 1012.6
20260905042904 82 0 0.0 0.0 9.99 3.14 3.16 87 1012.7
20260905041905 82 0 0.0 0.0 9.99 3.09 3.11 87 1012.8
20260905041405 82 0 0.0 0.0 9.99 3.07 3.08 86 1012.8
20260905040904 82 0 0.0 0.0 9.99 3.04 3.05 86 1012.8
20260905040405 82 0 0.0 0.0 9.99 3.01 3.03 86 1012.8
20260905035404 82 0 0.0 0.0 9.99 2.96 2.97 86 1012.9
20260905034905 83 0 0.0 0.0 9.99 2.92 2.93 86 1012.9
20260905034405 83 0 0.0 0.0 9.99 2.90 2.91 86 1012.9
20260905033905 83 0 0.0 0.0 9.99 2.86 2.88 86 1013.0
20260905032904 83 0 0.0 0.0 9.99 2.81 2.82 85 1012.9
20260905032405 83 0 0.0 0.0 9.99 2.79 2.80 85 1012.9
20260905031904 83 0 0.0 0.0 9.99 2.76 2.78 84 1012.9
20260905031405 83 0 0.0 0.0 9.99 2.74 2.75 84 1012.9
20260905030404 83 0 0.0 0.0 9.99 2.67 2.69 83 1013.0
20260905025405 83 0 0.0 0.0 9.99 2.61 2.62 83 1012.9
20260905024905 84 0 0.0 0.0 9.99 2.58 2.59 83 1012.8
20260905023904 84 0 0.0 0.0 9.99 2.52 2.53 82 1012.7
20260905023404 84 0 0.0 0.0 9.99 2.50 2.51 82 1012.7
20260905022905 84 0 0.0 0.0 9.99 2.46 2.48 81 1012.7
20260905022404 84 0 0.0 0.0 9.99 2.44 2.45 81 1012.7
20260905021405 84 0 0.0 0.0 9.99 2.39 2.40 80 1012.6
20260905020404 85 0 0.0 0.0 9.99 2.33 2.35 80 1012.3
20260905015904 85 0 0.0 0.0 9.99 2.31 2.32 80 1012.3
20260905015405 85 0 0.0 0.0 9.99 2.29 2.30 79 1012.3
20260905014905 85 0 0.0 0.0 9.99 2.26 2.27 79 1012.3
20260905014404 85 0 0.0 0.0 9.99 2.23 2.24 79 1012.3
20260905013904 85 0 0.0 0.0 9.99 2.19 2.21 78 1012.3
20260905013405 85 0 0.0 0.0 9.99 2.17 2.18 78 1012.2
20260905012905 85 0 0.0 0.0 9.99 2.14 2.15 78 1012.1
20260905012404 86 0 0.0 0.0 9.99 2.10 2.12 78 1012.1
20260905011904 86 0 0.0 0.0 9.99 2.08 2.09 78 1012.0
20260905011404 86 0 0.0 0.0 9.99 2.06 2.07 77 1012.0
20260905010905 86 0 0.0 0.0 9.99 2.04 2.05 77 1012.0
20260905010405 86 0 0.0 0.0 9.99 2.01 2.02 77 1012.0
20260905005905 86 0 0.0 0.0 9.99 1.98 1.99 76 1011.8
20260905005405 87 0 0.0 0.0 9.99 1.95 1.96 76 1011.8
20260905004905 87 0 0.0 0.0 9.99 1.92 1.94 76 1011.9
20260905004404 87 0 0.0 0.0 9.99 1.90 1.91 75 1011.8
20260905003905 87 0 0.0 0.0 9.99 1.86 1.88 75 1011.7
20260905003404 87 0 0.0 0.0 9.99 1.84 1.85 75 1011.6
20260905001404 88 0 0.0 0.0 9.99 1.73 1.74 74 1011.7
20260905000904 88 0 0.0 0.0 9.99 1.70 1.72 74 1011.7
20260905000404 89 0 0.0 0.0 9.99 1.68 1.69 73 1011.7
20260904235905 89 0 0.0 0.0 9.99 1.66 1.67 73 1011.6
20260904235404 89 0 0.0 0.0 9.99 1.63 1.64 72 1011.6
20260904234904 89 0 0.0 0.0 9.99 1.60 1.62 72 1011.6
20260904234404 90 0 0.0 0.0 9.99 1.58 1.59 71 1011.5
20260904233904 90 0 0.0 0.0 9.99 1.55 1.57 70 1011.6
20260904232904 90 0 0.0 0.0 9.99 1.50 1.51 70 1011.6
20260904232404 91 0 0.0 0.0 9.99 1.47 1.48 71 1011.6
20260904231904 91 0 0.0 0.0 9.99 1.44 1.45 71 1011.6
20260904231404 91 0 0.0 0.0 9.99 1.41 1.42 70 1011.6
20260904230404 92 0 0.0 0.0 9.99 1.36 1.38 69 1011.7
20260904224905 92 0 0.0 0.0 9.99 1.27 1.29 69 1011.7
20260904223404 93 0 0.0 0.0 9.99 1.20 1.21 68 1011.8
20260904222904 92 0 0.0 0.0 9.99 1.17 1.19 69 1011.7
20260904222404 92 0 0.0 0.0 9.99 1.15 1.16 69 1011.7
20260904221905 92 0 0.0 0.0 9.99 1.12 1.14 69 1011.6
20260904221404 92 0 0.0 0.0 9.99 1.11 1.12 69 1011.5
20260904220904 92 0 0.0 0.0 9.99 1.08 1.09 70 1011.6
20260904220404 92 0 0.0 0.0 9.99 1.05 1.06 70 1011.6
20260904215904 91 0 0.0 0.0 9.99 1.02 1.03 70 1011.6
20260904215405 92 0 0.0 0.0 9.99 9.99 1.01 69 1011.5
20260904214905 92 0 0.0 0.0 9.99 9.61 9.75 67 1011.6
20260904214405 93 0 0.0 0.0 9.99 9.31 9.45 65 1011.7
20260904213905 94 0 0.0 0.0 9.99 9.01 9.15 64 1011.8
20260904213404 95 0 0.0 0.0 9.99 8.74 8.88 62 1011.9
20260904212904 96 0 0.0 0.0 9.99 8.47 8.61 61 1012.0
20260904212404 96 0 0.0 0.0 9.99 8.23 8.37 62 1012.1
20260904211904 97 0 0.0 0.0 9.99 7.93 8.07 59 1012.0
20260904211405 97 0 0.0 0.0 9.99 7.69 7.83 58 1011.9
20260904210904 97 0 0.0 0.0 9.99 7.39 7.53 59 1012.0
20260904210404 98 0 0.0 0.0 9.99 7.15 7.29 60 1012.1
20260904205404 97 0 0.0 0.0 9.99 6.78 6.91 59 1012.3
20260904204405 96 0 0.0 0.0 9.99 6.16 6.30 61 1012.3
20260904203905 95 0 0.0 0.0 9.99 5.86 6.00 63 1012.3
20260904203405 95 0 0.0 0.0 9.99 5.59 5.73 64 1012.4
20260904202904 94 0 0.0 0.0 9.99 5.31 5.44 66 1012.5
20260904202404 93 0 0.0 0.0 9.99 5.04 5.17 65 1012.6
20260904201904 92 0 0.0 0.0 9.99 4.71 4.84 70 1012.7
20260904201404 91 0 0.0 0.0 9.99 4.42 4.56 73 1012.8
20260904200905 90 0 0.0 0.0 9.99 4.15 4.29 78 1012.9
20260904200404 88 0 0.0 0.0 9.99 3.82 3.96 80 1012.9
20260904195403 85 0 0.0 0.0 9.99 3.30 3.43 88 1012.9
20260904194403 83 0 0.0 0.0 9.99 2.97 3.01 90 1013.2
20260904193403 82 182 0.0 7.8 9.99 2.92 2.92 88 1013.1
20260904192904 82 183 1.7 10.4 9.99 2.73 2.73 88 1013.2
20260904192405 82 176 3.5 10.4 9.99 2.38 2.38 88 1013.4
20260904191904 83 155 1.7 7.0 9.99 2.02 2.02 87 1013.4
20260904191404 83 145 3.5 7.0 9.99 1.87 1.87 88 1013.4
20260904190904 83 266 0.0 0.9 9.99 1.66 1.66 88 1013.6
20260904190404 83 266 0.0 1.7 9.99 1.44 1.44 87 1013.5
20260904185905 83 266 0.9 1.7 9.99 1.20 1.20 86 1013.4
20260904185404 83 266 0.0 2.6 9.19 9.19 9.19 86 1013.5
20260904184904 84 266 0.0 2.6 7.12 7.12 7.12 86 1013.6
20260904183904 84 265 1.7 7.0 3.68 3.68 3.68 82 1013.7
20260904183404 85 266 2.6 7.0 1.94 1.94 1.94 82 1013.8
20260904182404 87 339 1.7 6.1 0.00 0.00 0.00 74 1014.1
20260904181904 88 346 4.3 6.1 0.00 0.00 0.00 74 1014.1
20260904181404 89 331 1.7 7.0 0.00 0.00 0.00 75 1014.2
20260904180904 89 352 4.3 7.0 0.00 0.00 0.00 74 1014.3
20260904175405 90 321 0.0 0.0 0.00 0.00 0.00 71 1014.2
20260904174904 91 321 0.0 0.0 0.00 0.00 0.00 71 1014.3
20260904174404 91 321 0.0 0.0 0.00 0.00 0.00 70 1014.3
20260904173904 91 321 0.0 1.7 0.00 0.00 0.00 69 1014.3
20260904172404 92 30 1.7 7.0 0.00 0.00 0.00 68 1014.3
20260904171905 93 7 3.5 7.0 0.00 0.00 0.00 67 1014.3
20260904170904 93 342 4.3 7.8 0.00 0.00 0.00 68 1014.4
20260904170404 92 331 1.7 8.7 0.00 0.00 0.00 67 1014.4
20260904165404 92 358 4.3 7.8 0.00 0.00 0.00 69 1014.6
20260904164904 93 357 4.3 7.8 0.00 0.00 0.00 64 1014.6
20260904163403 94 244 1.7 4.3 0.00 0.00 0.00 66 1014.7
20260904162904 95 51 2.6 4.3 0.00 0.00 0.00 66 1014.7
20260904162404 94 16 2.6 5.2 0.00 0.00 0.00 70 1014.8
20260904161903 94 128 2.6 5.2 0.00 0.00 0.00 70 1014.7
20260904161404 93 61 2.6 5.2 0.00 0.00 0.00 71 1014.6
20260904160405 92 57 1.7 7.8 0.00 0.00 0.00 72 1014.4
20260904155904 92 165 2.6 7.8 0.00 0.00 0.00 73 1014.4
20260904155405 91 92 1.7 8.7 0.00 0.00 0.00 77 1014.5
20260904154904 89 96 6.1 8.7 0.00 0.00 0.00 78 1014.5
20260904154404 88 129 8.7 8.7 0.00 0.00 0.00 80 1014.5
20260904153904 87 153 7.8 8.7 0.00 0.00 0.00 80 1014.5
20260904153405 86 136 1.7 5.2 0.00 0.00 0.00 82 1014.5
20260904152905 86 88 2.6 5.2 0.00 0.00 0.00 83 1014.6
20260904152404 85 119 1.7 5.2 0.00 0.00 0.00 84 1014.6
20260904151904 85 84 0.9 4.3 0.00 0.00 0.00 85 1014.4
20260904151403 85 84 0.9 4.3 0.00 0.00 0.00 85 1014.0
20260904150904 85 130 1.7 5.2 0.00 0.00 0.00 85 1014.0
20260904145904 84 102 1.7 7.0 0.00 0.00 0.00 85 1013.9
20260904145404 84 104 7.0 7.0 0.00 0.00 0.00 86 1014.0
20260904144405 84 137 2.6 5.2 0.00 0.00 0.00 87 1014.1
20260904143904 84 121 0.9 2.6 0.00 0.00 0.00 88 1014.0
20260904143404 84 182 0.0 0.0 0.00 0.00 0.00 89 1013.9
20260904142904 84 182 0.0 0.0 0.00 0.00 0.00 90 1013.9
20260904142404 83 182 0.0 0.0 0.00 0.00 0.00 91 1013.9
20260904141904 83 182 0.0 0.0 0.00 0.00 0.00 92 1013.9
20260904141404 83 182 0.0 0.0 0.00 0.00 0.00 93 1013.9
20260904140904 82 182 0.0 0.0 0.00 0.00 0.00 93 1013.8
20260904140405 82 182 0.0 0.0 0.00 0.00 0.00 93 1013.8
20260904135403 81 182 0.9 1.7 0.00 0.00 0.00 93 1013.7
20260904134403 81 182 0.0 0.0 0.00 0.00 0.00 93 1013.6
20260904133904 81 182 0.0 0.0 0.00 0.00 0.00 93 1013.6
20260904133405 81 182 0.0 0.0 0.00 0.00 0.00 93 1013.6
20260904131904 80 182 0.0 0.0 0.00 0.00 0.00 93 1013.5
20260904131403 80 182 0.0 0.0 0.00 0.00 0.00 93 1013.4
20260904125404 80 182 0.0 0.0 0.00 0.00 0.00 92 1013.4
20260904124904 79 182 0.0 0.0 0.00 0.00 0.00 92 1013.4
20260904124404 80 182 0.0 0.0 0.00 0.00 0.00 91 1013.3
20260904123904 80 182 0.0 0.0 0.00 0.00 0.00 91 1013.2
20260904123405 80 182 0.0 0.0 0.00 0.00 0.00 91 1013.1
20260904122903 80 182 0.0 0.9 0.00 0.00 0.00 91 1013.0
20260904122404 80 182 0.0 0.9 0.00 0.00 0.00 91 1012.9
20260904121903 80 182 0.0 0.0 0.00 0.00 0.00 91 1012.8
20260904121404 80 182 0.0 0.0 0.00 0.00 0.00 91 1012.7
20260904120905 80 182 0.0 0.0 0.00 0.00 0.00 91 1012.7
20260904120404 80 182 0.0 0.0 0.00 0.00 0.00 91 1012.7
20260904115904 80 182 0.0 0.0 0.00 0.00 0.00 91 1012.7
20260904115404 80 182 0.0 0.0 0.00 0.00 0.00 90 1012.6
20260904114904 80 182 0.0 0.0 0.00 0.00 0.00 90 1012.5
20260904114404 80 182 0.0 0.0 0.00 0.00 0.00 90 1012.6
20260904113404 80 182 0.0 0.0 0.00 0.00 0.00 90 1012.7
20260904112904 80 182 0.0 0.0 0.00 0.00 0.00 90 1012.5
20260904112403 80 182 0.0 0.0 0.00 0.00 0.00 90 1012.5
20260904111904 80 182 0.0 0.0 0.00 0.00 0.00 90 1012.5